Location: Castelbiague
(43.0361°N, 0.9246°E)
Time: 20:12:27
(UTC+00:00)

FENGYUN 1C DEB - Visible Passes

Search period start: 16 January 2022 00:00
Search period end: 26 January 2022 00:00
Orbit: 753 x 1029 km, 98.8° (Epoch: 16 January)

Date Brightness Start Highest point End Pass type
(mag) Time Alt. Az. Time Alt. Az. Time Alt. Az.
16 Jan ? 05:20:03 10° E 05:20:53 10° E 05:21:44 10° E visible
16 Jan ? 18:32:01 10° S 18:36:49 44° W 18:41:35 10° NNW visible
17 Jan ? 05:19:51 10° ENE 05:20:53 10° E 05:21:55 10° E visible
17 Jan ? 18:32:00 10° S 18:36:47 44° W 18:41:33 10° NNW visible
18 Jan ? 05:19:41 10° ENE 05:20:52 11° E 05:22:04 10° E visible
18 Jan ? 18:31:58 10° S 18:36:44 44° W 18:41:31 10° NNW visible
19 Jan ? 05:19:32 10° ENE 05:20:51 11° E 05:22:12 10° ESE visible
19 Jan ? 18:31:57 10° S 18:36:42 44° W 18:41:29 10° NNW visible
20 Jan ? 05:19:24 10° ENE 05:20:51 11° E 05:22:19 10° ESE visible
20 Jan ? 18:31:55 10° S 18:36:39 44° W 18:41:27 10° NNW visible
21 Jan ? 05:19:16 10° ENE 05:20:50 11° E 05:22:25 10° ESE visible
21 Jan ? 18:31:53 10° S 18:36:37 44° W 18:41:25 10° NNW visible
22 Jan ? 05:19:09 10° ENE 05:20:49 11° E 05:22:32 10° ESE visible
22 Jan ? 18:31:50 10° S 18:36:34 44° W 18:41:23 10° NNW visible
23 Jan ? 05:19:02 10° ENE 05:20:49 11° E 05:22:37 10° ESE visible
23 Jan ? 18:31:48 10° S 18:36:32 44° W 18:41:21 10° NNW visible
24 Jan ? 05:18:55 10° ENE 05:20:48 11° E 05:22:43 10° ESE visible
24 Jan ? 18:31:46 10° S 18:36:30 44° W 18:41:19 10° NNW visible
25 Jan ? 05:18:49 10° ENE 05:20:48 12° E 05:22:47 10° ESE visible
25 Jan ? 18:31:43 10° S 18:36:26 44° W 18:41:18 10° NNW visible
